TimeCST,TemperatureF,Dew PointF,Humidity,Sea Level PressureIn,VisibilityMPH,Wind Direction,Wind SpeedMPH,Gust SpeedMPH,PrecipitationIn,Events,Conditions,WindDirDegrees,DateUTC
12:53 AM,44.1,35.1,71,30.19,10.0,SSE,10.4,-,0.00,Rain,Light Rain,150,2014-01-09 06:53:00
1:53 AM,44.1,37.0,76,30.18,10.0,SE,10.4,-,0.00,Rain,Light Rain,140,2014-01-09 07:53:00
2:00 AM,44.6,37.4,76,30.18,10.0,SE,10.4,-,0.00,,Overcast,130,2014-01-09 08:00:00
2:53 AM,43.0,41.0,93,30.19,8.0,ESE,3.5,-,0.00,,Overcast,110,2014-01-09 08:53:00
3:34 AM,42.8,41.0,93,30.18,4.0,ESE,5.8,-,0.01,Rain,Light Rain,120,2014-01-09 09:34:00
3:53 AM,43.0,42.1,97,30.18,3.0,ESE,3.5,-,0.02,Rain,Light Rain,110,2014-01-09 09:53:00
4:53 AM,43.0,42.1,97,30.19,3.0,NNE,3.5,-,0.05,Rain,Light Rain,20,2014-01-09 10:53:00
5:00 AM,42.8,42.8,100,30.19,3.0,NNE,3.5,-,0.01,Rain,Rain,20,2014-01-09 11:00:00
5:53 AM,43.0,42.1,97,30.19,5.0,NE,4.6,-,0.05,Rain,Light Rain,50,2014-01-09 11:53:00
6:19 AM,42.8,42.8,100,30.19,4.0,NE,4.6,-,0.01,Rain,Light Rain,50,2014-01-09 12:19:00
6:53 AM,42.1,41.0,96,30.19,4.0,ENE,6.9,-,0.02,Rain,Light Rain,60,2014-01-09 12:53:00
7:53 AM,43.0,41.0,93,30.20,4.0,East,5.8,-,0.00,Rain,Light Rain,80,2014-01-09 13:53:00
8:53 AM,41.0,39.9,96,30.22,5.0,NE,5.8,-,0.01,,Overcast,50,2014-01-09 14:53:00
9:48 AM,42.8,39.2,87,30.23,2.5,ENE,5.8,-,0.00,Rain,Light Rain,60,2014-01-09 15:48:00
9:53 AM,42.1,39.9,92,30.23,2.5,ENE,4.6,-,0.00,,Overcast,60,2014-01-09 15:53:00
10:01 AM,41.0,39.2,93,30.23,3.0,ENE,4.6,-,N/A,,Overcast,60,2014-01-09 16:01:00
10:19 AM,42.8,41.0,93,30.23,2.0,NE,4.6,-,N/A,,Overcast,50,2014-01-09 16:19:00
10:53 AM,42.1,41.0,96,30.23,2.5,ENE,5.8,-,N/A,,Overcast,70,2014-01-09 16:53:00
11:07 AM,42.8,42.8,100,30.22,3.0,ENE,5.8,-,N/A,,Overcast,60,2014-01-09 17:07:00
11:53 AM,44.1,43.0,96,30.20,4.0,NE,5.8,-,N/A,,Overcast,50,2014-01-09 17:53:00
12:53 PM,46.9,45.0,93,30.15,6.0,East,5.8,-,N/A,,Overcast,100,2014-01-09 18:53:00
1:53 PM,48.9,46.0,90,30.12,10.0,ESE,4.6,-,N/A,,Overcast,110,2014-01-09 19:53:00
2:53 PM,50.0,46.9,89,30.11,9.0,East,4.6,-,N/A,,Overcast,100,2014-01-09 20:53:00
3:38 PM,50.0,48.2,94,30.11,1.8,SE,5.8,-,N/A,,Overcast,130,2014-01-09 21:38:00
3:53 PM,50.0,48.0,93,30.11,1.5,ESE,4.6,-,N/A,,Overcast,110,2014-01-09 21:53:00
4:07 PM,48.2,48.2,100,30.12,2.5,ESE,4.6,-,N/A,,Overcast,110,2014-01-09 22:07:00
5:27 PM,48.2,48.2,100,30.11,1.2,Calm,Calm,-,0.01,Rain,Light Rain,0,2014-01-09 23:27:00
5:39 PM,48.2,46.4,93,30.11,2.0,ENE,3.5,-,0.01,Rain,Light Rain,60,2014-01-09 23:39:00
5:53 PM,48.0,46.9,96,30.11,2.5,ENE,4.6,-,0.01,Rain,Light Rain,60,2014-01-09 23:53:00
6:07 PM,48.2,46.4,93,30.11,3.0,NE,4.6,-,0.01,,Overcast,50,2014-01-10 00:07:00
6:17 PM,48.2,46.4,93,30.11,2.5,NE,5.8,-,0.01,,Overcast,50,2014-01-10 00:17:00
6:31 PM,46.4,46.4,100,30.12,3.0,NE,4.6,-,0.01,,Overcast,50,2014-01-10 00:31:00
6:41 PM,46.4,46.4,100,30.12,2.5,ENE,4.6,-,0.01,Rain,Light Rain,60,2014-01-10 00:41:00
6:53 PM,46.9,46.0,97,30.12,3.0,ENE,5.8,-,0.01,Rain,Light Rain,60,2014-01-10 00:53:00
7:53 PM,46.9,46.0,97,30.12,3.0,East,4.6,-,0.01,Rain,Light Rain,80,2014-01-10 01:53:00
8:53 PM,46.9,46.0,97,30.11,3.0,East,6.9,-,0.01,Rain,Light Rain,100,2014-01-10 02:53:00
9:53 PM,48.9,48.0,97,30.10,5.0,ESE,5.8,-,0.00,Rain,Light Rain,120,2014-01-10 03:53:00
10:53 PM,52.0,51.1,97,30.07,5.0,SE,8.1,-,0.00,,Overcast,140,2014-01-10 04:53:00
11:53 PM,54.0,54.0,100,30.04,4.0,SSE,10.4,-,0.00,,Overcast,150,2014-01-10 05:53:00